DW9417 Weather Reports


time (UTC)temp
C
wind
direction
speed
KPH
gust
KPH
rain 1hr
cm
rain 24hr
cm
rain mn
cm
humidity
%
barometer
mb
20260503191542 7 222 0.0 0.0 0.00 0.00 0.00 85 1027.8
20260503190047 8 222 1.6 4.8 0.00 0.00 0.00 84 1027.7
20260503184554 7 222 3.2 8.0 0.00 0.00 0.00 85 1027.9
20260503183053 7 222 0.0 6.4 0.00 0.00 0.00 85 1027.9
20260503181538 7 121 0.0 0.0 0.00 0.00 0.00 84 1027.6
20260503180036 7 121 0.0 0.0 0.00 0.00 0.00 85 1027.6
20260503174535 7 121 0.0 0.0 0.00 0.00 0.00 86 1027.6
20260503173033 7 121 0.0 0.0 0.00 0.00 0.00 85 1027.3
20260503171531 7 122 0.0 0.0 0.00 0.00 0.00 85 1027.4
20260503081615 18 115 8.0 16.1 0.00 0.00 0.00 50 1024.7
20260503080103 18 150 6.4 12.9 0.00 0.00 0.00 50 1024.7
20260503071544 18 107 8.0 16.1 0.00 0.00 0.00 51 1024.9
20260503054533 17 22 3.2 14.5 0.00 0.00 0.00 62 1025.3
20260503053032 17 340 1.6 9.7 0.00 0.00 0.00 63 1025.3
20260503051529 17 17 3.2 12.9 0.00 0.00 0.00 63 1025.4
20260503050035 17 63 4.8 12.9 0.00 0.00 0.00 63 1025.6
20260503044524 16 54 3.2 9.7 0.00 0.00 0.00 66 1025.9
20260503043023 16 56 4.8 11.3 0.00 0.00 0.00 67 1026.2
20260503041519 15 150 0.0 11.3 0.00 0.00 0.00 70 1026.5
20260503040016 15 126 3.2 11.3 0.00 0.00 0.00 71 1027.0
20260503034514 15 101 1.6 8.0 0.00 0.00 0.00 72 1027.1
20260503033012 14 107 3.2 12.9 0.00 0.00 0.00 75 1027.1
20260503031507 13 117 6.4 12.9 0.00 0.00 0.00 77 1027.4
20260503030006 13 103 6.4 12.9 0.00 0.00 0.00 78 1027.5
20260503024507 13 107 4.8 16.1 0.00 0.00 0.00 78 1027.7
20260503023003 13 142 6.4 16.1 0.00 0.00 0.00 78 1027.7
20260503021501 13 125 9.7 16.1 0.00 0.00 0.00 80 1027.8
20260503020058 12 107 9.7 14.5 0.00 0.00 0.00 85 1027.8
20260503014559 11 111 1.6 6.4 0.00 0.00 0.00 88 1027.8
20260503013055 10 111 0.0 4.8 0.00 0.00 0.00 90 1028.0
20260503011600 10 111 1.6 6.4 0.00 0.00 0.00 91 1028.1
20260503010053 10 110 1.6 6.4 0.00 0.00 0.00 91 1028.1
20260503004551 10 99 3.2 9.7 0.00 0.00 0.00 92 1028.1
20260503003049 9 111 3.2 9.7 0.00 0.00 0.00 92 1027.9
20260503001559 8 159 4.8 12.9 0.00 0.00 0.00 92 1027.9
20260503000100 8 165 1.6 14.5 0.00 0.00 0.00 92 1027.7
20260502234546 7 161 1.6 8.0 0.00 0.00 0.00 92 1027.5
20260502233058 6 162 0.0 0.0 0.00 0.00 0.00 92 1027.2
20260502231557 6 162 0.0 0.0 0.00 0.00 0.00 92 1027.0
20260502230039 5 163 0.0 0.0 0.00 0.00 0.00 91 1026.9
20260502224536 5 161 0.0 0.0 0.00 0.00 0.00 89 1026.6
20260502223033 5 159 0.0 0.0 0.00 0.00 0.00 89 1026.4
20260502221532 5 159 0.0 0.0 0.00 0.00 0.00 88 1026.2
20260502220036 5 159 0.0 0.0 0.00 0.00 0.00 89 1026.0
20260502214527 5 161 0.0 0.0 0.00 0.00 0.00 89 1025.9
20260502213026 5 161 0.0 0.0 0.00 0.00 0.00 88 1025.9
20260502211534 5 159 0.0 0.0 0.00 0.00 0.00 87 1025.7
20260502210021 6 159 0.0 0.0 0.00 0.00 0.00 87 1025.7
20260502204520 6 160 0.0 0.0 0.00 0.00 0.00 88 1025.6
20260502203019 6 160 0.0 0.0 0.00 0.00 0.00 86 1025.6
20260502201516 6 160 0.0 0.0 0.00 0.00 0.00 86 1025.5
20260502200014 6 159 0.0 0.0 0.00 0.00 0.00 86 1025.4
20260502194512 7 160 0.0 0.0 0.00 0.00 0.00 86 1025.4
20260502193013 7 159 0.0 0.0 0.00 0.00 0.00 86 1025.4